Regional Weather Roundup
Issued by NWS

Home | Current Version | Previous Version | Graphics & Text | Print | Product List | Glossary On
Versions: 1 2 3 4 5 6 7 8 9 10 11 12 13 14 15 16 17 18 19 20 21 22 23 24 25 26 27 28 29 30 31 32 33 34 35 36 37 38 39 40 41 42 43 44 45 46 47 48 49 50
000
ASUS43 KMPX 192210
RWRMN
WEATHER ROUNDUP FOR MINNESOTA
NATIONAL WEATHER SERVICE TWIN CITIES/CHANHASSEN MN
500 PM CDT SAT APR 19 2014


NOTE: "FAIR" INDICATES FEW OR NO CLOUDS BELOW 12,000 FEET WITH NO
SIGNIFICANT WEATHER AND/OR OBSTRUCTIONS TO VISIBILITY. N/A MEANS
CURRENT SKY AND/OR WEATHER CONDITIONS ARE NOT AVAILABLE.

MNZ060>063-068>070-192300-
   Twin Cities Metro

CITY           SKY/WX    TMP DP  RH WIND       PRES   REMARKS
TWIN CITIES    CLOUDY    64  47  53 SE8       29.99S
ST PAUL        CLOUDY    62  45  53 SE12      30.00S
CRYSTAL        CLOUDY    66  46  48 S14       29.97S
BLAINE         CLOUDY    66  46  48 SE12      29.97
EDEN PRAIRIE   CLOUDY    64  48  56 SE5       29.97S
LAKEVILLE      LGT RAIN  64  46  52 S10       29.98F
SOUTH ST PAUL  LGT RAIN  67  45  46 SE6       30.00R
LAKE ELMO      LGT RAIN  63  45  51 S9        30.02S
$$
MNZ001>005-007-008-013>017-022>024-027-028-192300-
   Northwest Minnesota

CITY           SKY/WX    TMP DP  RH WIND       PRES   REMARKS
BEMIDJI        SUNNY     64  32  30 SW16G22   29.88S
HALLOCK          N/A     55  41  58 W25       29.84R
ROSEAU         MOSUNNY   55  41  58 W16G31    29.83R
WARROAD        MOSUNNY   57  41  54 SW17G32   29.82R
THIEF RVR FALL SUNNY     59  37  44 W20       29.88R
CROOKSTON      MOSUNNY   63  39  42 W17       29.88S
FOSSTON        SUNNY     64  32  29 W20G29    29.89S
DETROIT LAKES  SUNNY     63  30  29 SW14G20   29.93S
MOORHEAD       SUNNY     66  21  18 W15       29.92R
PARK RAPIDS    MOSUNNY   65  29  25 W21       29.91R
$$
MNZ006-009>011-018-025>026-192300-
   North Central Minnesota

CITY           SKY/WX    TMP DP  RH WIND       PRES   REMARKS
BAUDETTE       MOSUNNY   61  35  37 SW15G29   29.81R
FLAG ISLAND    MOSUNNY   54  34  47 SW22G31   29.76S
INTL FALLS     MOSUNNY   58  40  51 SW13G18   29.84R
WASKISH        SUNNY     57  34  41 SW17G23   29.86R
BIG FORK       PTSUNNY   64  39  39 SW13G23   29.88R
LONGVILLE      MOSUNNY   66  27  22 W15G21    29.91R
GRAND RAPIDS   PTSUNNY   59  39  47 S16       29.92S
CRANE LAKE     PTSUNNY   46  43  87 S9G16     29.92F
ORR            PTSUNNY   55  36  47 S14G21    29.88S
COOK           PTSUNNY   54  37  54 S10G20    29.92F
$$
MNZ012-019>021-037-192300-
   Northeast Minnesota

CITY           SKY/WX    TMP DP  RH WIND       PRES   REMARKS
DULUTH         PTSUNNY   42  32  67 S10       29.99F
ELY            MOSUNNY   45  34  65 S12G17    29.96F
HIBBING        MOSUNNY   56  37  49 S10G20    29.93F
EVELETH        MOSUNNY   52  36  54 S14G23    29.96S
DULUTH HARBOR  PTSUNNY   34  32  93 CALM      30.05S
TWO HARBORS    CLOUDY    39  28  65 CALM      30.00F
SILVER BAY     PTSUNNY   36  34  93 N3        30.00F
GRAND MARAIS     N/A     36  31  82 NE9       30.07S
G MARAIS ARPRT CLOUDY    32  27  80 E3        30.03S
$$
MNZ029>031-032-039>041-046>048-054>057-064-192300-
   West Central Minnesota

CITY           SKY/WX    TMP DP  RH WIND       PRES   REMARKS
FERGUS FALLS   SUNNY     68  19  15 W18G24    29.90S
WHEATON        MOSUNNY   72  34  25 SW9G20    29.95F
MORRIS         MOSUNNY   70  32  24 W13       29.94S
ALEXANDRIA     MOSUNNY   66  29  24 W13       29.95S
ELBOW LAKE     FAIR      68  30  24 W15       29.94S
WADENA         MOSUNNY   64  36  34 W13       29.93R
GLENWOOD       MOSUNNY   66  34  30 W12G17    29.96F
APPLETON       MOSUNNY   70  27  19 W6        29.95F
BENSON         MOSUNNY   66  36  32 W5        29.96S
ORTONVILLE     MOSUNNY   70  25  18 W13       29.95S
MADISON        MOSUNNY   70  30  23 W6        29.96S
WILLMAR        FAIR      61  45  55 W5        29.98F
$$
MNZ033>034-036-042>043-049>051-058-059-192300-
   Central Minnesota

CITY           SKY/WX    TMP DP  RH WIND       PRES   REMARKS
ST CLOUD       CLOUDY    60  47  61 VRB3      29.97F
SAUK CENTRE    FAIR      65  40  40 SW7       29.96S
PAYNESVILLE    PTSUNNY   62  42  47 CALM      29.97F
AITKIN         MOSUNNY   63  43  48 S12       29.93S
PINE RIVER     MOSUNNY   66  36  32 W9        29.95R
BRAINERD       MOSUNNY   68  45  43 S15       29.93F
STAPLES        MOSUNNY   66  28  24 W14G20    29.93R
LONG PRAIRIE   FAIR      64  37  36 SW12      29.95S
LITTLE FALLS   MOSUNNY   61  45  55 SW8       29.95S
LITCHFIELD     CLOUDY    59  46  63 W3        29.97F
BUFFALO        CLOUDY    62  46  55 W5        29.99R
MAPLE LAKE     CLOUDY    61  49  65 W5        29.99R
$$
MNZ037-044-045-052-053-192300-
   East Central Minnesota

CITY           SKY/WX    TMP DP  RH WIND       PRES   REMARKS
PRINCETON      LGT RAIN  52  46  82 CALM      29.98R
MORA           CLOUDY    48  41  76 CALM      29.99F
CAMBRIDGE      LGT RAIN  59  45  58 S7        29.95F
RUSH CITY      CLOUDY    52  38  60 S10       29.96F
MOOSE LAKE     PTSUNNY   54  37  54 S6        29.98S
HINCKLEY       FAIR      46  39  76 CALM      29.98S
CLOQUET        PTSUNNY   48  34  57 SE8       29.98F
MCGREGOR       MOSUNNY   57  43  58 S10G17    29.96S
$$
MNZ071>073-080-081-089-090-097-098-192300-
   Southwest Minnesota

CITY           SKY/WX    TMP DP  RH WIND       PRES   REMARKS
MONTEVIDEO     PTSUNNY   68  46  45 W3        29.98S
GRANITE FALLS  PTSUNNY   60  45  57 NW6       29.99F
CANBY          PTSUNNY   64  33  31 SW6       30.00R
MARSHALL       CLOUDY    64  37  36 NW8       29.98S
REDWOOD FALLS  CLOUDY    62  46  55 N8        29.98R
OLIVIA         CLOUDY    59  46  63 NW6       29.97S
PIPESTONE      CLOUDY    64  30  27 NW7       29.99F
WINDOM         PTSUNNY   72  45  37 SW15      29.97S
WORTHINGTON    CLOUDY    72  45  37 SW13      30.00S
JACKSON        CLOUDY    72  43  35 SW15      29.98S
TRACY          CLOUDY    63  46  53 NW8       29.99S
SLAYTON        CLOUDY    65  39  38 NW13      30.00R
$$
MNZ065>067-074>077-082>085-091>093-192300-
   South Central Minnesota

CITY           SKY/WX    TMP DP  RH WIND       PRES   REMARKS
MANKATO        CLOUDY    68  48  49 SW8       29.96F
NEW ULM        CLOUDY    68  50  52 N8        29.96R
ST JAMES       CLOUDY    72  46  40 SW9       29.97S
FAIRMONT       CLOUDY    73  45  35 SW16      29.99S
GLENCOE        CLOUDY    67  46  47 N5        29.97S
FARIBAULT      CLOUDY    72  39  30 S13G18    29.98F
OWATONNA       PTSUNNY   72  45  37 S14G23    29.99S
WASECA         CLOUDY    68  50  52 S9        30.00S
ALBERT LEA     PTSUNNY   73  43  33 S18G25    29.99F
$$
MNZ078>079-086>088-094>096-192300-
   Southeast Minnesota

CITY           SKY/WX    TMP DP  RH WIND       PRES   REMARKS
ROCHESTER      PTSUNNY   68  44  42 S22G30    30.04F
RED WING       CLOUDY    66  39  37 S13       29.99F
STANTON        CLOUDY    68  45  43 S17G24    29.97F
DODGE CENTER   PTSUNNY   72  39  30 S24G30    30.02F
WINONA           N/A    N/A N/A N/A MISG        N/A
AUSTIN         PTSUNNY   72  39  30 S21G26    30.02F
PRESTON        CLOUDY    68  40  35 S21       30.07F
$$
ABBREVIATIONS USED IN REMARKS
   TC - TEMPERATURES IN CELSIUS
  WCI - WIND CHILL INDEX
   HX - HEAT INDEX
  VSB - VISIBILITY
$$



USA.gov is the U.S. government's official web portal to all federal, state and local government web resources and services.